Flag for Norway Weather past 2 weeks in Bryne, Norway

Now
48 °F

Cool.


Feels Like: 47 °F
Forecast: 47 / 53 °F
Wind: 3 mph from Northeast

Location: Obrestad

Current Time: Sep 23, 2014 at 1:20:18 AM

Latest Report: Sep 23, 2014 at 12:00 AM


Visibility: N/A

Pressure: 30.06 "Hg

Humidity: 75%

Dew point: 40 °F

Location of BryneLocation

Historic Weather in Bryne — Graph

°F

Bryne temperature yesterday

Maximum temperature yesterday: 57 °F (at 1:00 PM)
Minimum temperature yesterday: 46 °F (at 8:00 AM)
Average temperature yesterday: 52 °F

Past Weeks' High & Low Weather Summary

 TemperatureHumidityPressure
High69 °F (Sep 16, 2:00 PM)97% (Sep 12, 7:00 AM)30.46 "Hg (Sep 12, 7:00 AM)
Low46 °F (Sep 22, 8:00 AM)37% (Sep 16, 3:00 PM)29.82 "Hg (Sep 8, 7:00 AM)
Average57 °F78%30.15 "Hg
* Reported Midnight between Sep 7 and Sep 8 — Midnight between Sep 22 and Sep 23, Bryne, Weather by CustomWeather, © 2014

Note: Actual official high and low records may vary slightly from our data, if they occured in-between our weather recording intervals... More about our weather records

Advertising

Bryne weather history for previous 24 hours

 ConditionsComfort  
Time TempWeatherWind HumidityBarometerVisibility
12:00 AM
Sep 23
48 °FCool.3 mph75%30.06 "HgN/A
11:00 PM
Sep 22
50 °FCool.3 mph76%30.06 "HgN/A
10:00 PM50 °FCool.6 mph75%30.07 "HgN/A
9:00 PM54 °FCool.7 mph68%30.07 "HgN/A
8:00 PM52 °FCool.5 mph71%30.07 "HgN/A
7:00 PM53 °FCool.6 mph69%30.07 "HgN/A
6:00 PM54 °FCool.8 mph62%30.07 "HgN/A
5:00 PM55 °FCool.9 mph61%30.08 "HgN/A
4:00 PM55 °FCool.8 mph62%30.08 "HgN/A
3:00 PM55 °FRefreshingly cool.8 mph57%30.08 "HgN/A
2:00 PM55 °FCool.7 mph69%30.09 "HgN/A
1:00 PM57 °FRefreshingly cool.3 mph52%30.08 "HgN/A
12:00 PM54 °FCool.6 mph62%30.08 "HgN/A
11:00 AM53 °FCool.5 mph65%30.10 "HgN/A
10:00 AM50 °FCool.5 mph72%30.09 "HgN/A
9:00 AM48 °FCool.6 mph73%30.08 "HgN/A
8:00 AM46 °FCool.6 mph79%30.06 "HgN/A
7:00 AM47 °FCool.6 mph75%30.04 "HgN/A
6:00 AM48 °FCool.8 mph73%30.02 "HgN/A
5:00 AM47 °FCool.8 mph76%30.02 "HgN/A
4:00 AM48 °FCool.8 mph75%30.01 "HgN/A
3:00 AM50 °FCool.10 mph73%30.01 "HgN/A
2:00 AM49 °FCool.12 mph73%30.01 "HgN/A
1:00 AM53 °FCool.15 mph60%30.00 "HgN/A
Weather by CustomWeather, © 2014

See weather overviewHow to use our weather pages